Location: Peebles
(55.6412°N, 3.1714°W)
Time: 14:50:34
(UTC+01:00)

FLOCK 4S 45 - Pass Details

Date: 11 July 2022
Orbit: 507 x 523 km, 97.4° (Epoch: 17 August)

Event Time Altitude Azimuth Distance (km) Brightness Sun altitude
Rises 22:52:13 0° 198° (SSW) 2,651 ? -6.4°
Reaches altitude 10° 22:54:39 10° 214° (SSW) 1,766 ? -6.6°
Maximum altitude 22:57:44 23° 268° (W) 1,152 ? -6.8°
Drops below altitude 10° 23:00:50 10° 322° (NW) 1,772 ? -7.0°
Sets 23:03:16 0° 337° (NNW) 2,663 ? -7.2°
